Location: Puketoi
(40.5833°S, 176.0167°E)
Time: 00:18:43
(UTC+00:00)

COSMOS 2455 - Pass Details

Date: 08 February 2023
Orbit: 898 x 911 km, 67.1° (Epoch: 31 March)

Event Time Altitude Azimuth Distance (km) Brightness Sun altitude
Exits shadow 14:37:27 23° 44° (NE) 1,846 4.3 -27.1°
Maximum altitude 14:39:22 27° 73° (ENE) 1,680 4.4 -26.9°
Drops below altitude 10° 14:44:19 10° 128° (SE) 2,610 6.2 -26.3°
Sets 14:47:11 0° 140° (SE) 3,556 7.3 -26.0°
